| time (UTC) | temp F | wind direction | speed knots | gust knots | rain 1hr in | rain 24hr in | rain mn in | humidity % | barometer mb |
| 20260905043937 | 59 | 247 | 17.4 | 17.4 | 0.00 | 0.08 | 0.00 | 84 | 1054.8 |
| 20260905043437 | 59 | 270 | 14.8 | 17.4 | 0.00 | 0.08 | 0.00 | 84 | 1046.9 |
| 20260905042937 | 59 | 292 | 6.1 | 18.2 | 0.00 | 0.08 | 0.00 | 85 | 1027.2 |
| 20260905042437 | 59 | 225 | 13.9 | 21.7 | 0.00 | 0.08 | 0.00 | 85 | 1050.1 |
| 20260905042136 | 59 | 270 | 7.0 | 28.7 | 0.00 | 0.08 | 0.00 | 86 | 1070.0 |
| 20260905041937 | 59 | 247 | 9.6 | 28.7 | 0.00 | 0.08 | 0.00 | 86 | 1065.4 |
| 20260905041437 | 59 | 270 | 17.4 | 19.1 | 0.00 | 0.08 | 0.00 | 87 | 1044.1 |
| 20260905040937 | 59 | 270 | 19.1 | 25.2 | 0.00 | 0.08 | 0.00 | 87 | 998.8 |
| 20260905040438 | 59 | 225 | 8.7 | 23.5 | 0.00 | 0.08 | 0.00 | 88 | 1028.0 |
| 20260905035938 | 58 | 270 | 13.0 | 19.1 | 0.02 | 0.08 | 0.00 | 88 | 1021.6 |
| 20260905035438 | 58 | 270 | 10.4 | 18.2 | 0.02 | 0.08 | 0.00 | 88 | 1047.3 |
| 20260905034938 | 58 | 292 | 13.9 | 17.4 | 0.02 | 0.08 | 0.00 | 88 | 1034.3 |
| 20260905034837 | 58 | 292 | 12.2 | 17.4 | 0.02 | 0.08 | 0.00 | 89 | 1043.8 |
| 20260905034438 | 58 | 180 | 3.5 | 20.0 | 0.02 | 0.08 | 0.00 | 88 | 1051.2 |
| 20260905033938 | 58 | 270 | 17.4 | 17.4 | 0.02 | 0.08 | 0.00 | 88 | 1031.2 |
| 20260905033438 | 58 | 292 | 7.0 | 16.5 | 0.02 | 0.08 | 0.00 | 87 | 1062.7 |
| 20260905032938 | 58 | 292 | 4.3 | 14.8 | 0.02 | 0.08 | 0.00 | 87 | 1018.5 |
| 20260905032549 | 59 | 270 | 10.4 | 13.0 | 0.02 | 0.08 | 0.00 | 85 | 1021.7 |
| 20260905032438 | 59 | 270 | 10.4 | 13.0 | 0.02 | 0.08 | 0.00 | 85 | 1021.7 |
| 20260905031938 | 60 | 270 | 11.3 | 25.2 | 0.02 | 0.08 | 0.00 | 84 | 1034.3 |
| 20260905031537 | 60 | 292 | 8.7 | 26.1 | 0.02 | 0.08 | 0.00 | 83 | 1009.0 |
| 20260905031438 | 61 | 270 | 16.5 | 26.1 | 0.02 | 0.08 | 0.00 | 82 | 999.5 |
| 20260905031132 | 63 | 270 | 25.2 | 25.2 | 0.02 | 0.08 | 0.00 | 82 | 1031.2 |
| 20260905030938 | 63 | 270 | 25.2 | 25.2 | 0.02 | 0.08 | 0.00 | 82 | 1031.2 |
| 20260905030438 | 63 | 247 | 16.5 | 16.5 | 0.00 | 0.06 | 0.00 | 82 | 1040.6 |
| 20260905025938 | 63 | 270 | 8.7 | 16.5 | 0.00 | 0.06 | 0.00 | 81 | 1031.2 |
| 20260905025438 | 63 | 270 | 16.5 | 16.5 | 0.00 | 0.06 | 0.00 | 81 | 1024.8 |
| 20260905024938 | 63 | 202 | 7.0 | 18.2 | 0.00 | 0.06 | 0.00 | 81 | 1040.6 |
| 20260905024438 | 63 | 225 | 13.9 | 13.9 | 0.00 | 0.06 | 0.00 | 81 | 1021.7 |
| 20260905024237 | 63 | 157 | 7.0 | 14.8 | 0.00 | 0.06 | 0.00 | 80 | 1040.6 |
| 20260905023938 | 63 | 270 | 7.0 | 14.8 | 0.00 | 0.06 | 0.00 | 80 | 1043.8 |
| 20260905023438 | 64 | 225 | 8.7 | 20.0 | 0.00 | 0.06 | 0.00 | 81 | 1024.8 |
| 20260905022938 | 64 | 247 | 7.0 | 17.4 | 0.00 | 0.06 | 0.00 | 81 | 1018.5 |
| 20260905022438 | 64 | 225 | 7.8 | 15.6 | 0.00 | 0.06 | 0.00 | 81 | 1012.2 |
| 20260905021938 | 64 | 202 | 5.2 | 20.9 | 0.00 | 0.06 | 0.00 | 81 | 1031.2 |
| 20260905021438 | 64 | 270 | 10.4 | 13.0 | 0.00 | 0.06 | 0.00 | 81 | 1031.2 |
| 20260905020937 | 64 | 202 | 11.3 | 18.2 | 0.00 | 0.06 | 0.00 | 81 | 1028.0 |
| 20260905020438 | 64 | 225 | 1.7 | 12.2 | 0.00 | 0.06 | 0.00 | 81 | 1037.5 |
| 20260905015938 | 64 | 225 | 9.6 | 12.2 | 0.00 | 0.06 | 0.00 | 81 | 1043.8 |
| 20260905015438 | 64 | 202 | 5.2 | 13.0 | 0.00 | 0.06 | 0.00 | 81 | 1015.4 |
| 20260905014938 | 64 | 225 | 11.3 | 14.8 | 0.00 | 0.06 | 0.00 | 81 | 1028.0 |
| 20260905014438 | 64 | 270 | 5.2 | 18.2 | 0.00 | 0.06 | 0.00 | 81 | 1015.4 |
| 20260905013938 | 65 | 225 | 13.0 | 18.2 | 0.00 | 0.06 | 0.00 | 81 | 1034.3 |
| 20260905013637 | 65 | 270 | 10.4 | 17.4 | 0.00 | 0.06 | 0.00 | 81 | 1034.3 |
| 20260905013438 | 65 | 225 | 8.7 | 16.5 | 0.00 | 0.06 | 0.00 | 81 | 1024.9 |
| 20260905012938 | 65 | 225 | 8.7 | 19.1 | 0.00 | 0.06 | 0.00 | 81 | 1009.0 |
| 20260905012438 | 65 | 292 | 7.8 | 17.4 | 0.00 | 0.06 | 0.00 | 82 | 1040.6 |
| 20260905011938 | 65 | 247 | 8.7 | 20.9 | 0.00 | 0.06 | 0.00 | 82 | 1012.2 |
| 20260905011438 | 65 | 225 | 3.5 | 16.5 | 0.00 | 0.06 | 0.00 | 82 | 1031.1 |
| 20260905010938 | 65 | 292 | 6.1 | 18.2 | 0.00 | 0.06 | 0.00 | 83 | 1021.7 |
| 20260905010438 | 65 | 270 | 13.9 | 16.5 | 0.00 | 0.06 | 0.00 | 84 | 1053.2 |
| 20260905010337 | 65 | 292 | 8.7 | 16.5 | 0.00 | 0.06 | 0.00 | 84 | 1040.7 |
| 20260905005938 | 65 | 225 | 14.8 | 16.5 | 0.00 | 0.06 | 0.00 | 84 | 1031.2 |
| 20260905005438 | 65 | 202 | 13.0 | 18.2 | 0.00 | 0.06 | 0.00 | 84 | 1050.1 |
| 20260905004938 | 65 | 247 | 13.0 | 15.6 | 0.00 | 0.06 | 0.00 | 84 | 1040.6 |
| 20260905004438 | 65 | 225 | 10.4 | 13.9 | 0.00 | 0.06 | 0.00 | 85 | 1043.8 |
| 20260905003938 | 65 | 270 | 7.0 | 15.6 | 0.00 | 0.06 | 0.00 | 85 | 1058.6 |
| 20260905003438 | 65 | 225 | 7.0 | 14.8 | 0.00 | 0.06 | 0.00 | 85 | 1040.6 |
| 20260905003037 | 65 | 247 | 9.6 | 16.5 | 0.00 | 0.06 | 0.00 | 86 | 1003.1 |
| 20260905002938 | 65 | 225 | 16.5 | 16.5 | 0.00 | 0.06 | 0.00 | 86 | 1034.3 |
| 20260905002438 | 65 | 225 | 5.2 | 18.2 | 0.00 | 0.06 | 0.00 | 86 | 1024.4 |
| 20260905001938 | 65 | 202 | 8.7 | 13.0 | 0.00 | 0.06 | 0.00 | 86 | 1059.4 |
| 20260905001438 | 65 | 202 | 5.2 | 17.4 | 0.00 | 0.06 | 0.00 | 86 | 1062.6 |
| 20260905000938 | 65 | 247 | 10.4 | 14.8 | 0.00 | 0.06 | 0.00 | 87 | 1069.7 |
| 20260905000439 | 65 | 180 | 7.8 | 16.5 | 0.00 | 0.06 | 0.00 | 87 | 1002.7 |
| 20260904235938 | 65 | 225 | 9.6 | 14.8 | 0.00 | 0.06 | 0.00 | 87 | 1053.1 |
| 20260904235737 | 65 | 270 | 7.8 | 16.5 | 0.00 | 0.06 | 0.00 | 87 | 1040.7 |
| 20260904235438 | 65 | 225 | 14.8 | 16.5 | 0.00 | 0.06 | 0.00 | 87 | 1048.7 |
| 20260904234938 | 65 | 247 | 7.0 | 13.0 | 0.00 | 0.06 | 0.00 | 87 | 1067.4 |
| 20260904234438 | 65 | 270 | 6.1 | 13.9 | 0.00 | 0.06 | 0.00 | 87 | 997.3 |
| 20260904233939 | 65 | 225 | 10.4 | 14.8 | 0.00 | 0.06 | 0.00 | 87 | 1038.1 |
| 20260904233438 | 65 | 270 | 9.6 | 13.0 | 0.00 | 0.06 | 0.00 | 87 | 1045.6 |
| 20260904232938 | 65 | 292 | 7.0 | 10.4 | 0.00 | 0.06 | 0.00 | 87 | 1050.2 |
| 20260904232437 | 64 | 247 | 5.2 | 13.0 | 0.00 | 0.06 | 0.00 | 87 | 1056.3 |
| 20260904231938 | 64 | 225 | 5.2 | 11.3 | 0.00 | 0.06 | 0.00 | 87 | 1013.5 |
| 20260904231438 | 64 | 247 | 7.8 | 12.2 | 0.00 | 0.06 | 0.00 | 87 | 1053.6 |
| 20260904230938 | 64 | 270 | 7.8 | 11.3 | 0.00 | 0.06 | 0.00 | 87 | 1040.7 |
| 20260904230438 | 64 | 247 | 3.5 | 9.6 | 0.00 | 0.06 | 0.00 | 87 | 1064.3 |
| 20260904225939 | 64 | 225 | 7.0 | 13.9 | 0.00 | 0.06 | 0.00 | 87 | 1070.5 |
| 20260904225438 | 64 | 225 | 7.0 | 14.8 | 0.00 | 0.06 | 0.00 | 86 | 1024.5 |
| 20260904225137 | 64 | 202 | 7.8 | 15.6 | 0.00 | 0.06 | 0.00 | 86 | 1043.5 |
| 20260904224938 | 64 | 247 | 7.8 | 15.6 | 0.00 | 0.06 | 0.00 | 86 | 1078.5 |
| 20260904224438 | 64 | 247 | 12.2 | 14.8 | 0.00 | 0.06 | 0.00 | 86 | 1076.1 |
| 20260904223938 | 64 | 247 | 3.5 | 12.2 | 0.00 | 0.06 | 0.00 | 86 | 1083.1 |
| 20260904223438 | 64 | 202 | 8.7 | 12.2 | 0.00 | 0.06 | 0.00 | 86 | 1053.2 |
| 20260904222938 | 64 | 202 | 7.8 | 13.9 | 0.00 | 0.06 | 0.00 | 85 | 1041.4 |
| 20260904222438 | 64 | 225 | 2.6 | 10.4 | 0.00 | 0.06 | 0.00 | 85 | 1079.8 |
| 20260904221938 | 64 | 202 | 4.3 | 10.4 | 0.00 | 0.06 | 0.00 | 85 | 1013.0 |
| 20260904221837 | 64 | 202 | 7.8 | 10.4 | 0.00 | 0.06 | 0.00 | 85 | 1059.3 |
| 20260904221438 | 64 | 270 | 7.0 | 13.9 | 0.00 | 0.06 | 0.00 | 85 | 1024.0 |
| 20260904220938 | 64 | 270 | 6.1 | 13.0 | 0.00 | 0.06 | 0.00 | 85 | 1060.8 |
| 20260904220438 | 64 | 225 | 7.0 | 8.7 | 0.00 | 0.06 | 0.00 | 85 | 1045.3 |
| 20260904215938 | 64 | 270 | 4.3 | 13.9 | 0.00 | 0.08 | 0.00 | 85 | 1070.9 |
| 20260904215438 | 64 | 225 | 5.2 | 10.4 | 0.00 | 0.08 | 0.00 | 85 | 1070.8 |
| 20260904214938 | 64 | 225 | 10.4 | 12.2 | 0.00 | 0.08 | 0.00 | 84 | 1066.1 |
| 20260904214537 | 64 | 202 | 9.6 | 9.6 | 0.00 | 0.08 | 0.00 | 84 | 1051.7 |
| 20260904214438 | 64 | 270 | 5.2 | 8.7 | 0.00 | 0.08 | 0.00 | 84 | 1050.2 |
| 20260904213938 | 64 | 270 | 3.5 | 12.2 | 0.00 | 0.08 | 0.00 | 85 | 1041.0 |
| 20260904213438 | 64 | 180 | 5.2 | 12.2 | 0.00 | 0.08 | 0.00 | 85 | 1051.4 |
| 20260904212938 | 64 | 247 | 8.7 | 14.8 | 0.00 | 0.08 | 0.00 | 85 | 1061.0 |
| 20260904212438 | 64 | 270 | 7.0 | 14.8 | 0.00 | 0.08 | 0.00 | 85 | 1085.9 |
| 20260904211938 | 65 | 270 | 7.8 | 16.5 | 0.00 | 0.08 | 0.00 | 85 | 1064.5 |
| 20260904211438 | 65 | 225 | 7.0 | 17.4 | 0.00 | 0.08 | 0.00 | 84 | 1057.9 |
| 20260904211237 | 65 | 247 | 5.2 | 17.4 | 0.00 | 0.08 | 0.00 | 84 | 1057.6 |
| 20260904210938 | 65 | 247 | 7.0 | 14.8 | 0.02 | 0.08 | 0.00 | 84 | 1055.4 |
| 20260904210438 | 65 | 270 | 10.4 | 13.9 | 0.02 | 0.08 | 0.00 | 84 | 1062.7 |
| 20260904205938 | 65 | 270 | 11.3 | 14.8 | 0.02 | 0.08 | 0.00 | 84 | 1075.3 |
| 20260904205438 | 65 | 270 | 12.2 | 13.0 | 0.02 | 0.08 | 0.00 | 84 | 1080.0 |
| 20260904204938 | 65 | 225 | 10.4 | 13.9 | 0.02 | 0.08 | 0.00 | 84 | 1046.9 |
| 20260904204438 | 65 | 202 | 5.2 | 16.5 | 0.02 | 0.08 | 0.00 | 84 | 1036.6 |
| 20260904203937 | 66 | 292 | 13.0 | 14.8 | 0.04 | 0.08 | 0.00 | 84 | 1060.6 |
| 20260904203438 | 66 | 225 | 7.0 | 15.6 | 0.04 | 0.08 | 0.00 | 84 | 1030.3 |
| 20260904202938 | 66 | 247 | 14.8 | 14.8 | 0.04 | 0.08 | 0.00 | 84 | 1057.9 |
| 20260904202438 | 66 | 247 | 8.7 | 16.5 | 0.06 | 0.08 | 0.00 | 84 | 1052.5 |
| 20260904201938 | 66 | 270 | 7.8 | 20.0 | 0.06 | 0.08 | 0.00 | 84 | 1075.7 |
| 20260904201439 | 66 | 247 | 9.6 | 14.8 | 0.06 | 0.08 | 0.00 | 84 | 1067.4 |
| 20260904200938 | 66 | 270 | 15.6 | 15.6 | 0.04 | 0.06 | 0.00 | 84 | 1072.1 |
| 20260904200637 | 66 | 247 | 12.2 | 18.2 | 0.04 | 0.06 | 0.00 | 84 | 1022.1 |
| 20260904200438 | 66 | 225 | 11.3 | 18.2 | 0.04 | 0.06 | 0.00 | 84 | 1098.4 |
| 20260904195938 | 67 | 225 | 12.2 | 15.6 | 0.04 | 0.06 | 0.00 | 82 | 1053.2 |
| 20260904195438 | 67 | 247 | 13.0 | 13.0 | 0.04 | 0.06 | 0.00 | 81 | 1072.2 |
| 20260904194938 | 68 | 247 | 7.0 | 12.2 | 0.04 | 0.06 | 0.00 | 79 | 1058.3 |
| 20260904194438 | 69 | 270 | 6.1 | 13.9 | 0.04 | 0.06 | 0.00 | 77 | 1064.2 |
| 20260904193938 | 70 | 270 | 5.2 | 13.9 | 0.02 | 0.04 | 0.00 | 74 | 1055.9 |
| 20260904193438 | 70 | 202 | 4.3 | 12.2 | 0.02 | 0.04 | 0.00 | 72 | 1066.8 |
| 20260904193337 | 71 | 180 | 7.0 | 12.2 | 0.02 | 0.04 | 0.00 | 72 | 1060.7 |
| 20260904192938 | 71 | 202 | 7.0 | 14.8 | 0.00 | 0.02 | 0.00 | 71 | 1054.8 |
| 20260904192438 | 72 | 202 | 9.6 | 17.4 | 0.00 | 0.02 | 0.00 | 69 | 1056.0 |
| 20260904191938 | 73 | 247 | 15.6 | 15.6 | 0.00 | 0.02 | 0.00 | 68 | 1061.1 |
| 20260904191438 | 73 | 225 | 13.0 | 17.4 | 0.00 | 0.02 | 0.00 | 67 | 1099.9 |
| 20260904190938 | 73 | 202 | 14.8 | 22.6 | 0.00 | 0.02 | 0.00 | 67 | 1080.0 |
| 20260904190438 | 72 | 225 | 9.6 | 22.6 | 0.00 | 0.02 | 0.00 | 67 | 1073.7 |
| 20260904190038 | 72 | 225 | 11.3 | 22.6 | 0.00 | 0.02 | 0.00 | 67 | 1051.6 |
| 20260904185938 | 72 | 247 | 22.6 | 22.6 | 0.00 | 0.02 | 0.00 | 67 | 1071.0 |
| 20260904185438 | 72 | 180 | 4.3 | 16.5 | 0.00 | 0.02 | 0.00 | 67 | 1070.5 |
| 20260904184939 | 72 | 225 | 12.2 | 14.8 | 0.00 | 0.02 | 0.00 | 67 | 1062.7 |
| 20260904184438 | 72 | 202 | 10.4 | 15.6 | 0.00 | 0.02 | 0.00 | 68 | 1061.6 |
| 20260904183939 | 72 | 225 | 16.5 | 16.5 | 0.00 | 0.02 | 0.00 | 68 | 1061.0 |
| 20260904183438 | 71 | 202 | 13.0 | 16.5 | 0.00 | 0.02 | 0.00 | 68 | 1049.9 |
| 20260904182939 | 71 | 202 | 7.0 | 12.2 | 0.00 | 0.02 | 0.00 | 68 | 1018.3 |
| 20260904182738 | 71 | 225 | 7.8 | 12.2 | 0.00 | 0.02 | 0.00 | 68 | 1024.5 |
| 20260904182439 | 71 | 180 | 4.3 | 13.0 | 0.00 | 0.02 | 0.00 | 68 | 1040.6 |
| 20260904181939 | 71 | 225 | 5.2 | 10.4 | 0.00 | 0.02 | 0.00 | 68 | 1022.7 |
| 20260904181439 | 71 | 180 | 10.4 | 11.3 | 0.00 | 0.02 | 0.00 | 68 | 1053.2 |
| 20260904180939 | 71 | 202 | 7.0 | 11.3 | 0.00 | 0.02 | 0.00 | 68 | 1056.5 |
| 20260904180439 | 71 | 180 | 5.2 | 11.3 | 0.00 | 0.02 | 0.00 | 68 | 1053.1 |
| 20260904175939 | 71 | 180 | 4.3 | 15.6 | 0.00 | 0.02 | 0.00 | 68 | 1059.5 |
| 20260904175438 | 71 | 202 | 9.6 | 11.3 | 0.00 | 0.02 | 0.00 | 68 | 1053.6 |
| 20260904174939 | 71 | 202 | 1.7 | 13.0 | 0.00 | 0.02 | 0.00 | 68 | 1042.5 |
| 20260904174439 | 71 | 202 | 7.8 | 13.9 | 0.00 | 0.02 | 0.00 | 68 | 1055.7 |
| 20260904173939 | 71 | 157 | 8.7 | 12.2 | 0.00 | 0.02 | 0.00 | 67 | 1046.9 |
| 20260904173439 | 71 | 225 | 4.3 | 11.3 | 0.00 | 0.02 | 0.00 | 67 | 1031.2 |
| 20260904172939 | 71 | 180 | 7.0 | 13.0 | 0.00 | 0.02 | 0.00 | 67 | 1063.8 |
| 20260904172439 | 71 | 157 | 3.5 | 14.8 | 0.00 | 0.02 | 0.00 | 66 | 1064.5 |
| 20260904172138 | 71 | 180 | 13.0 | 14.8 | 0.00 | 0.02 | 0.00 | 66 | 1045.4 |
| 20260904171939 | 71 | 180 | 10.4 | 14.8 | 0.00 | 0.02 | 0.00 | 66 | 1049.8 |
| 20260904171439 | 72 | 202 | 7.8 | 16.5 | 0.00 | 0.02 | 0.00 | 65 | 1060.0 |
| 20260904170939 | 72 | 135 | 7.8 | 13.9 | 0.00 | 0.02 | 0.00 | 65 | 1039.0 |
| 20260904170439 | 72 | 202 | 8.7 | 14.8 | 0.00 | 0.02 | 0.00 | 65 | 1048.8 |
| 20260904165939 | 72 | 180 | 8.7 | 13.0 | 0.00 | 0.02 | 0.00 | 64 | 1049.9 |
| 20260904165439 | 72 | 202 | 1.7 | 14.8 | 0.00 | 0.02 | 0.00 | 64 | 1037.3 |
| 20260904164939 | 72 | 180 | 10.4 | 15.6 | 0.00 | 0.02 | 0.00 | 64 | 1042.7 |
| 20260904164838 | 72 | 180 | 4.3 | 15.6 | 0.00 | 0.02 | 0.00 | 63 | 1008.0 |
| 20260904164439 | 72 | 225 | 8.7 | 15.6 | 0.00 | 0.02 | 0.00 | 63 | 1059.5 |
| 20260904163939 | 73 | 180 | 13.0 | 14.8 | 0.00 | 0.02 | 0.00 | 63 | 1096.8 |
| 20260904163439 | 73 | 202 | 8.7 | 14.8 | 0.00 | 0.02 | 0.00 | 63 | 1047.7 |
| 20260904162939 | 73 | 202 | 13.0 | 16.5 | 0.00 | 0.02 | 0.00 | 62 | 1065.5 |
| 20260904162439 | 73 | 225 | 7.0 | 14.8 | 0.00 | 0.02 | 0.00 | 62 | 1048.5 |
| 20260904161939 | 73 | 225 | 8.7 | 15.6 | 0.00 | 0.02 | 0.00 | 61 | 1053.2 |
| 20260904161538 | 73 | 202 | 6.1 | 14.8 | 0.00 | 0.02 | 0.00 | 60 | 1042.2 |
| 20260904161439 | 73 | 202 | 13.9 | 14.8 | 0.00 | 0.02 | 0.00 | 60 | 1031.2 |
| 20260904160939 | 74 | 202 | 14.8 | 15.6 | 0.00 | 0.02 | 0.00 | 60 | 1055.1 |
| 20260904160439 | 74 | 202 | 4.3 | 9.6 | 0.00 | 0.02 | 0.00 | 59 | 1018.4 |
| 20260904155939 | 74 | 157 | 3.5 | 16.5 | 0.00 | 0.02 | 0.00 | 59 | 1072.4 |
| 20260904155439 | 74 | 202 | 7.8 | 14.8 | 0.00 | 0.02 | 0.00 | 58 | 994.1 |
| 20260904154939 | 75 | 247 | 10.4 | 13.0 | 0.00 | 0.02 | 0.00 | 58 | 1061.8 |
| 20260904154439 | 75 | 22 | 2.6 | 16.5 | 0.00 | 0.02 | 0.00 | 58 | 1030.0 |
| 20260904154238 | 75 | 180 | 7.0 | 16.5 | 0.00 | 0.02 | 0.00 | 57 | 1066.0 |
| 20260904153939 | 75 | 180 | 7.8 | 14.8 | 0.00 | 0.02 | 0.00 | 57 | 1065.8 |
| 20260904153439 | 75 | 202 | 9.6 | 9.6 | 0.00 | 0.02 | 0.00 | 57 | 1036.6 |
| 20260904152939 | 75 | 180 | 4.3 | 10.4 | 0.00 | 0.02 | 0.00 | 56 | 1059.5 |
| 20260904152439 | 75 | 247 | 8.7 | 13.0 | 0.00 | 0.02 | 0.00 | 56 | 1057.2 |
| 20260904151939 | 75 | 202 | 10.4 | 13.9 | 0.00 | 0.02 | 0.00 | 55 | 1037.4 |
| 20260904151439 | 76 | 247 | 9.6 | 16.5 | 0.00 | 0.02 | 0.00 | 55 | 1070.0 |
| 20260904150938 | 76 | 247 | 4.3 | 13.0 | 0.00 | 0.02 | 0.00 | 54 | 1059.5 |
| 20260904150439 | 77 | 157 | 10.4 | 16.5 | 0.00 | 0.02 | 0.00 | 54 | 1033.5 |
| 20260904145939 | 78 | 225 | 6.1 | 12.2 | 0.00 | 0.02 | 0.00 | 53 | 1042.3 |
| 20260904145439 | 78 | 180 | 7.0 | 13.9 | 0.00 | 0.02 | 0.00 | 53 | 1073.6 |
| 20260904144939 | 78 | 225 | 11.3 | 11.3 | 0.00 | 0.02 | 0.00 | 54 | 1068.5 |
| 20260904144439 | 77 | 180 | 7.0 | 11.3 | 0.00 | 0.02 | 0.00 | 54 | 1054.4 |
| 20260904143940 | 77 | 202 | 6.1 | 10.4 | 0.00 | 0.02 | 0.00 | 54 | 1051.6 |
| 20260904143638 | 77 | 225 | 7.0 | 13.0 | 0.00 | 0.02 | 0.00 | 54 | 1062.4 |
| 20260904143439 | 77 | 157 | 10.4 | 15.6 | 0.00 | 0.02 | 0.00 | 54 | 1028.5 |
| 20260904142939 | 77 | 202 | 7.0 | 13.0 | 0.00 | 0.02 | 0.00 | 54 | 1046.9 |
| 20260904142439 | 77 | 202 | 11.3 | 13.9 | 0.00 | 0.02 | 0.00 | 54 | 1053.2 |
| 20260904141939 | 77 | 247 | 3.5 | 14.8 | 0.00 | 0.02 | 0.00 | 53 | 1059.6 |
| 20260904141439 | 77 | 225 | 9.6 | 16.5 | 0.00 | 0.02 | 0.00 | 53 | 1075.1 |
| 20260904140939 | 77 | 225 | 10.4 | 11.3 | 0.00 | 0.02 | 0.00 | 54 | 1040.2 |
| 20260904140439 | 77 | 247 | 6.1 | 12.2 | 0.00 | 0.02 | 0.00 | 54 | 1058.0 |
| 20260904140338 | 77 | 202 | 3.5 | 12.2 | 0.00 | 0.02 | 0.00 | 54 | 1065.7 |
| 20260904135439 | 77 | 157 | 10.4 | 12.2 | 0.00 | 0.02 | 0.00 | 54 | 1065.9 |
| 20260904134939 | 77 | 202 | 7.8 | 13.0 | 0.00 | 0.02 | 0.00 | 53 | 1053.3 |
| 20260904134439 | 78 | 225 | 6.1 | 14.8 | 0.00 | 0.02 | 0.00 | 53 | 1041.2 |
| 20260904133939 | 78 | 202 | 8.7 | 14.8 | 0.00 | 0.02 | 0.00 | 53 | 1046.9 |
| 20260904133439 | 78 | 202 | 10.4 | 13.0 | 0.00 | 0.02 | 0.00 | 52 | 1031.1 |
| 20260904133038 | 78 | 225 | 7.0 | 13.0 | 0.00 | 0.02 | 0.00 | 52 | 1034.3 |
| 20260904132939 | 78 | 202 | 7.0 | 13.0 | 0.00 | 0.02 | 0.00 | 52 | 1010.3 |
| 20260904132439 | 78 | 292 | 13.9 | 13.9 | 0.00 | 0.02 | 0.00 | 52 | 1055.4 |
| 20260904131939 | 78 | 247 | 5.2 | 15.6 | 0.00 | 0.02 | 0.00 | 52 | 1034.3 |
| 20260904131439 | 79 | 180 | 10.4 | 12.2 | 0.00 | 0.02 | 0.00 | 51 | 1055.7 |
| 20260904130939 | 78 | 202 | 4.3 | 13.0 | 0.00 | 0.02 | 0.00 | 52 | 1035.2 |
| 20260904130439 | 78 | 225 | 9.6 | 11.3 | 0.00 | 0.02 | 0.00 | 52 | 1020.0 |
| 20260904125939 | 78 | 180 | 6.1 | 15.6 | 0.00 | 0.02 | 0.00 | 52 | 1040.6 |
| 20260904125738 | 78 | 180 | 4.3 | 15.6 | 0.00 | 0.02 | 0.00 | 52 | 1028.9 |
| 20260904125439 | 78 | 225 | 3.5 | 13.0 | 0.00 | 0.02 | 0.00 | 51 | 1055.4 |
| 20260904124939 | 78 | 180 | 8.7 | 12.2 | 0.00 | 0.02 | 0.00 | 51 | 1044.3 |
| 20260904124440 | 78 | 247 | 7.8 | 12.2 | 0.00 | 0.02 | 0.00 | 51 | 1044.9 |
| 20260904123939 | 78 | 292 | 2.6 | 14.8 | 0.00 | 0.02 | 0.00 | 51 | 1049.4 |
| 20260904123439 | 78 | 270 | 12.2 | 13.0 | 0.00 | 0.02 | 0.00 | 51 | 1050.1 |
| 20260904122939 | 78 | 225 | 6.1 | 16.5 | 0.00 | 0.02 | 0.00 | 51 | 1035.4 |
| 20260904122438 | 78 | 270 | 8.7 | 15.6 | 0.00 | 0.02 | 0.00 | 51 | 1035.4 |
| 20260904121939 | 78 | 247 | 18.2 | 19.1 | 0.00 | 0.02 | 0.00 | 50 | 1040.6 |
| 20260904121440 | 78 | 225 | 13.0 | 16.5 | 0.00 | 0.02 | 0.00 | 51 | 1059.3 |
| 20260904120939 | 78 | 157 | 3.5 | 13.9 | 0.00 | 0.02 | 0.00 | 51 | 1044.7 |
| 20260904120439 | 78 | 270 | 11.3 | 16.5 | 0.00 | 0.02 | 0.00 | 50 | 1030.9 |
| 20260904115939 | 78 | 270 | 9.6 | 15.6 | 0.00 | 0.02 | 0.00 | 50 | 1024.8 |
| 20260904115439 | 78 | 292 | 7.8 | 13.9 | 0.00 | 0.02 | 0.00 | 51 | 1031.2 |
| 20260904115138 | 78 | 247 | 7.0 | 14.8 | 0.00 | 0.02 | 0.00 | 51 | 1059.3 |
| 20260904114939 | 78 | 202 | 10.4 | 14.8 | 0.00 | 0.02 | 0.00 | 51 | 1045.5 |
| 20260904114439 | 78 | 202 | 8.7 | 14.8 | 0.00 | 0.02 | 0.00 | 51 | 1037.5 |
| 20260904113939 | 78 | 247 | 14.8 | 17.4 | 0.00 | 0.02 | 0.00 | 51 | 1034.3 |
| 20260904113439 | 78 | 225 | 12.2 | 16.5 | 0.00 | 0.02 | 0.00 | 51 | 1040.6 |
| 20260904112939 | 77 | 225 | 16.5 | 19.1 | 0.00 | 0.02 | 0.00 | 51 | 1021.1 |
| 20260904112439 | 78 | 225 | 17.4 | 17.4 | 0.00 | 0.02 | 0.00 | 50 | 1043.7 |
| 20260904111939 | 79 | 270 | 12.2 | 14.8 | 0.00 | 0.02 | 0.00 | 50 | 1047.3 |
| 20260904111838 | 80 | 270 | 6.1 | 14.8 | 0.00 | 0.02 | 0.00 | 50 | 1020.1 |
| 20260904111439 | 80 | 270 | 7.0 | 16.5 | 0.00 | 0.02 | 0.00 | 51 | 1052.8 |
| 20260904110939 | 80 | 247 | 13.9 | 18.2 | 0.00 | 0.02 | 0.00 | 52 | 1064.3 |
| 20260904110439 | 78 | 270 | 3.5 | 16.5 | 0.00 | 0.02 | 0.00 | 53 | 1040.3 |
| 20260904105939 | 78 | 247 | 8.7 | 21.7 | 0.00 | 0.02 | 0.00 | 53 | 1034.3 |
| 20260904105439 | 78 | 247 | 12.2 | 19.1 | 0.00 | 0.02 | 0.00 | 53 | 1046.9 |
| 20260904104939 | 78 | 270 | 12.2 | 15.6 | 0.00 | 0.02 | 0.00 | 55 | 1034.1 |
| 20260904104538 | 77 | 180 | 7.0 | 15.6 | 0.00 | 0.02 | 0.00 | 55 | 1040.7 |
| 20260904104439 | 77 | 202 | 12.2 | 15.6 | 0.00 | 0.02 | 0.00 | 55 | 1052.3 |
| 20260904103939 | 77 | 247 | 6.1 | 17.4 | 0.00 | 0.02 | 0.00 | 54 | 1054.2 |
| 20260904103439 | 78 | 247 | 13.0 | 16.5 | 0.00 | 0.02 | 0.00 | 54 | 1040.6 |
| 20260904102939 | 78 | 202 | 10.4 | 20.0 | 0.00 | 0.02 | 0.00 | 55 | 1046.5 |
| 20260904102439 | 78 | 247 | 15.6 | 18.2 | 0.00 | 0.02 | 0.00 | 56 | 1041.5 |
| 20260904101939 | 77 | 157 | 7.0 | 14.8 | 0.00 | 0.02 | 0.00 | 58 | 1040.6 |
| 20260904101439 | 77 | 270 | 7.0 | 14.8 | 0.00 | 0.02 | 0.00 | 58 | 1034.3 |
| 20260904101238 | 77 | 180 | 3.5 | 16.5 | 0.00 | 0.02 | 0.00 | 58 | 1028.0 |
| 20260904100939 | 77 | 247 | 3.5 | 18.2 | 0.00 | 0.02 | 0.00 | 58 | 1034.3 |
| 20260904100439 | 77 | 202 | 7.8 | 11.3 | 0.00 | 0.02 | 0.00 | 58 | 1056.5 |
| 20260904095939 | 77 | 0 | 7.8 | 14.8 | 0.00 | 0.02 | 0.00 | 58 | 1018.5 |
| 20260904095439 | 76 | 202 | 9.6 | 13.9 | 0.00 | 0.02 | 0.00 | 60 | 1037.5 |
| 20260904094939 | 76 | 247 | 10.4 | 12.2 | 0.00 | 0.02 | 0.00 | 61 | 1028.0 |
| 20260904094439 | 75 | 270 | 9.6 | 13.0 | 0.00 | 0.02 | 0.00 | 60 | 1048.7 |
| 20260904093939 | 76 | 225 | 8.7 | 16.5 | 0.00 | 0.02 | 0.00 | 60 | 1018.5 |
| 20260904093440 | 76 | 270 | 6.1 | 14.8 | 0.00 | 0.02 | 0.00 | 61 | 1034.3 |
| 20260904092939 | 75 | 225 | 10.4 | 13.9 | 0.00 | 0.02 | 0.00 | 62 | 1037.5 |
| 20260904092439 | 75 | 225 | 13.9 | 15.6 | 0.00 | 0.02 | 0.00 | 62 | 1028.0 |
| 20260904091939 | 75 | 270 | 11.3 | 12.2 | 0.00 | 0.02 | 0.00 | 63 | 1043.8 |
| 20260904091439 | 74 | 112 | 3.5 | 14.8 | 0.00 | 0.02 | 0.00 | 63 | 1021.6 |
| 20260904090940 | 74 | 157 | 6.1 | 16.5 | 0.00 | 0.02 | 0.00 | 64 | 1034.3 |
| 20260904090639 | 73 | 225 | 7.0 | 15.6 | 0.00 | 0.02 | 0.00 | 64 | 1018.5 |
| 20260904090440 | 73 | 202 | 10.4 | 13.0 | 0.00 | 0.02 | 0.00 | 64 | 1024.9 |
| 20260904085940 | 73 | 270 | 13.0 | 18.2 | 0.00 | 0.02 | 0.00 | 64 | 1046.9 |
| 20260904085439 | 73 | 202 | 13.0 | 14.8 | 0.00 | 0.02 | 0.00 | 63 | 1021.6 |
| 20260904084939 | 74 | 202 | 10.4 | 18.2 | 0.00 | 0.02 | 0.00 | 62 | 1015.4 |
| 20260904084440 | 75 | 157 | 8.7 | 18.2 | 0.00 | 0.02 | 0.00 | 62 | 1021.6 |
| 20260904083940 | 76 | 225 | 7.0 | 13.0 | 0.00 | 0.02 | 0.00 | 62 | 1043.7 |
| 20260904083440 | 76 | 225 | 6.1 | 12.2 | 0.00 | 0.02 | 0.00 | 64 | 1043.8 |
| 20260904083339 | 76 | 180 | 7.0 | 12.2 | 0.00 | 0.02 | 0.00 | 64 | 1046.9 |
| 20260904082940 | 76 | 247 | 7.8 | 13.9 | 0.00 | 0.02 | 0.00 | 65 | 1040.6 |
| 20260904082440 | 75 | 202 | 13.9 | 13.9 | 0.00 | 0.02 | 0.00 | 66 | 1028.0 |
| 20260904081940 | 74 | 247 | 7.8 | 12.2 | 0.00 | 0.02 | 0.00 | 68 | 1021.6 |
| 20260904081440 | 73 | 270 | 11.3 | 11.3 | 0.00 | 0.02 | 0.00 | 70 | 1012.2 |
| 20260904080440 | 71 | 270 | 5.2 | 11.3 | 0.00 | 0.02 | 0.00 | 73 | 1018.5 |
| 20260904080039 | 70 | 247 | 7.0 | 13.9 | 0.00 | 0.02 | 0.00 | 73 | 1021.7 |
| 20260904075940 | 70 | 225 | 7.0 | 16.5 | 0.00 | 0.02 | 0.00 | 73 | 1037.4 |
| 20260904075440 | 70 | 247 | 12.2 | 15.6 | 0.00 | 0.02 | 0.00 | 73 | 1034.3 |
| 20260904074940 | 70 | 247 | 5.2 | 13.0 | 0.00 | 0.02 | 0.00 | 74 | 1015.4 |
| 20260904074440 | 69 | 225 | 7.0 | 9.6 | 0.00 | 0.02 | 0.00 | 74 | 1046.9 |
| 20260904073440 | 69 | 202 | 5.2 | 7.0 | 0.00 | 0.02 | 0.00 | 74 | 1028.0 |
| 20260904072940 | 69 | 112 | 2.6 | 12.2 | 0.00 | 0.02 | 0.00 | 74 | 1040.6 |
| 20260904072739 | 69 | 247 | 7.8 | 12.2 | 0.00 | 0.02 | 0.00 | 74 | 1028.0 |
| 20260904072440 | 69 | 202 | 6.1 | 14.8 | 0.00 | 0.02 | 0.00 | 74 | 1015.4 |
| 20260904071940 | 70 | 202 | 7.0 | 11.3 | 0.00 | 0.02 | 0.00 | 73 | 1031.1 |
| 20260904071440 | 71 | 270 | 7.8 | 14.8 | 0.00 | 0.02 | 0.00 | 74 | 1040.6 |
| 20260904070940 | 71 | 202 | 2.6 | 8.7 | 0.00 | 0.02 | 0.00 | 76 | 1046.8 |
| 20260904070440 | 70 | 225 | 6.1 | 8.7 | 0.00 | 0.02 | 0.00 | 79 | 1034.3 |
| 20260904065940 | 69 | 202 | 7.0 | 7.8 | 0.00 | 0.02 | 0.00 | 79 | 1034.3 |
| 20260904065439 | 68 | 202 | 6.1 | 9.6 | 0.00 | 0.02 | 0.00 | 79 | 1043.8 |
| 20260904064940 | 68 | 157 | 1.7 | 8.7 | 0.00 | 0.02 | 0.00 | 81 | 1043.8 |
| 20260904064440 | 68 | 225 | 2.6 | 7.0 | 0.00 | 0.02 | 0.00 | 82 | 1028.0 |
| 20260904063940 | 67 | 225 | 1.7 | 7.0 | 0.00 | 0.02 | 0.00 | 83 | 1046.9 |
| 20260904063440 | 66 | 270 | 7.0 | 8.7 | 0.00 | 0.02 | 0.00 | 84 | 1037.5 |
| 20260904062940 | 66 | 202 | 3.5 | 7.8 | 0.00 | 0.02 | 0.00 | 84 | 1031.2 |
| 20260904062440 | 65 | 202 | 3.5 | 7.0 | 0.00 | 0.02 | 0.00 | 84 | 1043.8 |
| 20260904062139 | 65 | 225 | 3.5 | 7.0 | 0.00 | 0.02 | 0.00 | 84 | 1046.9 |
| 20260904061940 | 65 | 225 | 5.2 | 7.0 | 0.00 | 0.02 | 0.00 | 84 | 1043.7 |
| 20260904060940 | 64 | 225 | 3.5 | 8.7 | 0.00 | 0.02 | 0.00 | 85 | 1037.5 |
| 20260904060440 | 64 | 202 | 4.3 | 9.6 | 0.00 | 0.02 | 0.00 | 85 | 1056.4 |
| 20260904055940 | 64 | 202 | 8.7 | 8.7 | 0.00 | 0.02 | 0.00 | 85 | 1053.2 |
| 20260904055440 | 64 | 202 | 1.7 | 10.4 | 0.00 | 0.02 | 0.00 | 85 | 1050.1 |
| 20260904054941 | 64 | 247 | 5.2 | 10.4 | 0.00 | 0.02 | 0.00 | 85 | 1031.1 |
| 20260904054839 | 64 | 202 | 2.6 | 10.4 | 0.00 | 0.02 | 0.00 | 85 | 1051.9 |
| 20260904054440 | 64 | 247 | 5.2 | 7.0 | 0.00 | 0.02 | 0.00 | 85 | 1051.8 |
| 20260904053940 | 63 | 225 | 5.2 | 8.7 | 0.00 | 0.02 | 0.00 | 85 | 1040.6 |
| 20260904053440 | 63 | 225 | 3.5 | 7.0 | 0.00 | 0.02 | 0.00 | 84 | 1043.7 |
| 20260904052940 | 63 | 225 | 7.0 | 7.8 | 0.00 | 0.02 | 0.00 | 84 | 1037.5 |
| 20260904052456 | 63 | 247 | 5.2 | 8.7 | 0.00 | 0.02 | 0.00 | 84 | 1021.1 |
| 20260904052440 | 63 | 202 | 4.3 | 8.7 | 0.00 | 0.02 | 0.00 | 84 | 1043.8 |
| 20260904051940 | 63 | 247 | 5.2 | 8.7 | 0.00 | 0.02 | 0.00 | 84 | 1021.1 |
| 20260904051539 | 62 | 225 | 3.5 | 8.7 | 0.00 | 0.02 | 0.00 | 84 | 1034.3 |
| 20260904051440 | 62 | 202 | 8.7 | 8.7 | 0.00 | 0.02 | 0.00 | 84 | 1043.8 |
| 20260904050940 | 62 | 225 | 7.0 | 8.7 | 0.00 | 0.02 | 0.00 | 84 | 1024.8 |
| 20260904050440 | 62 | 202 | 2.6 | 7.0 | 0.00 | 0.02 | 0.00 | 84 | 1046.9 |
| 20260904045940 | 62 | 225 | 7.0 | 7.8 | 0.00 | 0.02 | 0.00 | 83 | 1044.3 |
| 20260904045440 | 62 | 202 | 6.1 | 7.8 | 0.00 | 0.02 | 0.00 | 83 | 1002.5 |
| 20260904044940 | 62 | 225 | 1.7 | 7.8 | 0.00 | 0.02 | 0.00 | 83 | 1044.9 |
| 20260904044440 | 62 | 247 | 2.6 | 8.7 | 0.00 | 0.02 | 0.00 | 83 | 1036.6 |